Time,TemperatureF,DewpointF,PressureIn,WindDirection,WindDirectionDegrees,WindSpeedMPH,WindSpeedGustMPH,Humidity,HourlyPrecipIn,Conditions,Clouds,dailyrainin,SoftwareType,DateUTC
2013-02-12 00:00:00,45.8,42.0,29.78,WNW,284,1.0,3.0,85,0.00,,,0.38,weatherlink.com 1.10,2013-02-12 05:00:00,
2013-02-12 00:15:00,44.9,41.0,29.78,WNW,284,4.0,9.0,86,0.00,,,0.00,weatherlink.com 1.10,2013-02-12 05:15:00,
2013-02-12 00:30:00,45.0,40.0,29.78,WNW,302,5.0,10.0,82,0.00,,,0.00,weatherlink.com 1.10,2013-02-12 05:30:00,
2013-02-12 00:45:00,44.5,39.0,29.79,WNW,289,6.0,9.0,81,0.00,,,0.00,weatherlink.com 1.10,2013-02-12 05:45:00,
2013-02-12 01:01:00,44.5,38.0,29.78,WNW,284,9.0,9.0,79,0.00,,,0.00,weatherlink.com 1.10,2013-02-12 06:01:00,
2013-02-12 01:16:00,44.3,38.0,29.79,West,269,3.0,8.0,78,0.00,,,0.00,weatherlink.com 1.10,2013-02-12 06:16:00,
2013-02-12 01:31:00,44.2,36.0,29.79,SW,232,5.0,8.0,73,0.00,,,0.00,weatherlink.com 1.10,2013-02-12 06:31:00,
2013-02-12 01:46:00,43.8,35.0,29.79,WSW,254,5.0,9.0,72,0.00,,,0.00,weatherlink.com 1.10,2013-02-12 06:46:00,
2013-02-12 02:01:00,43.6,34.0,29.80,WNW,293,6.0,12.0,68,0.00,,,0.00,weatherlink.com 1.10,2013-02-12 07:01:00,
2013-02-12 02:16:00,43.1,33.0,29.80,WNW,288,5.0,10.0,67,0.00,,,0.00,weatherlink.com 1.10,2013-02-12 07:16:00,
2013-02-12 02:31:00,42.9,32.0,29.81,WNW,292,6.0,11.0,66,0.00,,,0.00,weatherlink.com 1.10,2013-02-12 07:31:00,
2013-02-12 02:46:00,42.4,32.0,29.81,NW,304,4.0,5.0,67,0.00,,,0.00,weatherlink.com 1.10,2013-02-12 07:46:00,
2013-02-12 03:01:00,41.7,32.0,29.81,West,261,1.0,5.0,68,0.00,,,0.00,weatherlink.com 1.10,2013-02-12 08:01:00,
2013-02-12 03:16:00,41.3,31.0,29.82,West,261,4.0,9.0,68,0.00,,,0.00,weatherlink.com 1.10,2013-02-12 08:16:00,
2013-02-12 03:31:00,41.2,31.0,29.82,West,277,2.0,6.0,67,0.00,,,0.00,weatherlink.com 1.10,2013-02-12 08:31:00,
2013-02-12 03:46:00,40.9,31.0,29.82,West,281,2.0,4.0,69,0.00,,,0.00,weatherlink.com 1.10,2013-02-12 08:46:00,
2013-02-12 04:01:00,40.5,31.0,29.82,WSW,257,5.0,9.0,68,0.00,,,0.00,weatherlink.com 1.10,2013-02-12 09:01:00,
2013-02-12 04:16:00,41.0,30.0,29.82,WNW,286,8.0,9.0,66,0.00,,,0.00,weatherlink.com 1.10,2013-02-12 09:16:00,
2013-02-12 04:31:00,40.6,30.0,29.83,WNW,285,6.0,8.0,67,0.00,,,0.00,weatherlink.com 1.10,2013-02-12 09:31:00,
2013-02-12 04:46:00,40.1,30.0,29.83,West,270,1.0,5.0,68,0.00,,,0.00,weatherlink.com 1.10,2013-02-12 09:46:00,
2013-02-12 05:02:00,40.1,30.0,29.85,WNW,299,3.0,10.0,67,0.00,,,0.00,weatherlink.com 1.10,2013-02-12 10:02:00,
2013-02-12 05:16:00,40.7,30.0,29.85,NW,306,7.0,17.0,65,0.00,,,0.00,weatherlink.com 1.10,2013-02-12 10:16:00,
2013-02-12 05:31:00,41.0,29.0,29.86,West,263,10.0,15.0,62,0.00,,,0.00,weatherlink.com 1.10,2013-02-12 10:31:00,
2013-02-12 05:46:00,40.9,28.0,29.86,NW,306,9.0,17.0,61,0.00,,,0.00,weatherlink.com 1.10,2013-02-12 10:46:00,
2013-02-12 06:01:00,41.0,27.0,29.86,WNW,283,5.0,13.0,58,0.00,,,0.00,weatherlink.com 1.10,2013-02-12 11:01:00,
2013-02-12 06:16:00,41.0,27.0,29.87,WNW,299,3.0,16.0,58,0.00,,,0.00,weatherlink.com 1.10,2013-02-12 11:16:00,
2013-02-12 06:31:00,41.3,27.0,29.87,West,269,7.0,13.0,57,0.00,,,0.00,weatherlink.com 1.10,2013-02-12 11:31:00,
2013-02-12 06:46:00,41.5,27.0,29.88,NW,319,2.0,15.0,57,0.00,,,0.00,weatherlink.com 1.10,2013-02-12 11:46:00,
2013-02-12 07:01:00,41.4,27.0,29.89,West,277,3.0,10.0,58,0.00,,,0.00,weatherlink.com 1.10,2013-02-12 12:01:00,
2013-02-12 07:17:00,41.8,27.0,29.90,WNW,291,4.0,15.0,56,0.00,,,0.00,weatherlink.com 1.10,2013-02-12 12:17:00,
2013-02-12 07:32:00,41.8,27.0,29.91,West,267,7.0,16.0,56,0.00,,,0.00,weatherlink.com 1.10,2013-02-12 12:32:00,
2013-02-12 07:47:00,41.8,27.0,29.92,WNW,282,4.0,21.0,57,0.00,,,0.00,weatherlink.com 1.10,2013-02-12 12:47:00,
2013-02-12 08:02:00,41.9,27.0,29.92,WNW,298,13.0,15.0,56,0.00,,,0.00,weatherlink.com 1.10,2013-02-12 13:02:00,
2013-02-12 08:17:00,42.0,28.0,29.93,West,276,3.0,14.0,57,0.00,,,0.00,weatherlink.com 1.10,2013-02-12 13:17:00,
2013-02-12 08:32:00,42.2,27.0,29.93,West,274,11.0,16.0,55,0.00,,,0.00,weatherlink.com 1.10,2013-02-12 13:32:00,
2013-02-12 08:47:00,42.4,27.0,29.93,West,281,7.0,19.0,55,0.00,,,0.00,weatherlink.com 1.10,2013-02-12 13:47:00,
2013-02-12 09:02:00,42.6,27.0,29.93,West,275,4.0,14.0,55,0.00,,,0.00,weatherlink.com 1.10,2013-02-12 14:02:00,
2013-02-12 09:17:00,42.8,27.0,29.93,West,264,11.0,15.0,54,0.00,,,0.00,weatherlink.com 1.10,2013-02-12 14:17:00,
2013-02-12 09:32:00,43.7,26.0,29.93,West,279,10.0,19.0,50,0.00,,,0.00,weatherlink.com 1.10,2013-02-12 14:32:00,
2013-02-12 09:47:00,44.0,26.0,29.94,WNW,297,8.0,21.0,50,0.00,,,0.00,weatherlink.com 1.10,2013-02-12 14:47:00,
2013-02-12 10:02:00,44.0,26.0,29.94,West,276,12.0,20.0,50,0.00,,,0.00,weatherlink.com 1.10,2013-02-12 15:02:00,
2013-02-12 10:17:00,44.9,26.0,29.93,WSW,238,9.0,21.0,48,0.00,,,0.00,weatherlink.com 1.10,2013-02-12 15:17:00,
2013-02-12 10:32:00,44.8,27.0,29.94,WSW,256,12.0,22.0,49,0.00,,,0.00,weatherlink.com 1.10,2013-02-12 15:32:00,
2013-02-12 10:47:00,45.2,26.0,29.94,WNW,294,3.0,19.0,48,0.00,,,0.00,weatherlink.com 1.10,2013-02-12 15:47:00,
2013-02-12 11:02:00,45.4,27.0,29.95,WNW,286,5.0,14.0,48,0.00,,,0.00,weatherlink.com 1.10,2013-02-12 16:02:00,
2013-02-12 11:17:00,44.8,26.0,29.95,WNW,295,10.0,20.0,48,0.00,,,0.00,weatherlink.com 1.10,2013-02-12 16:17:00,
2013-02-12 11:32:00,45.0,26.0,29.95,WSW,251,11.0,18.0,48,0.00,,,0.00,weatherlink.com 1.10,2013-02-12 16:32:00,
2013-02-12 11:47:00,46.0,27.0,29.95,West,259,7.0,18.0,48,0.00,,,0.00,weatherlink.com 1.10,2013-02-12 16:47:00,
2013-02-12 12:02:00,46.0,27.0,29.95,West,265,8.0,18.0,48,0.00,,,0.00,weatherlink.com 1.10,2013-02-12 17:02:00,
2013-02-12 12:17:00,46.2,27.0,29.95,NW,306,12.0,24.0,47,0.00,,,0.00,weatherlink.com 1.10,2013-02-12 17:17:00,
2013-02-12 12:32:00,47.0,28.0,29.94,WSW,249,13.0,17.0,48,0.00,,,0.00,weatherlink.com 1.10,2013-02-12 17:32:00,
2013-02-12 12:47:00,47.0,27.0,29.94,West,267,9.0,18.0,46,0.00,,,0.00,weatherlink.com 1.10,2013-02-12 17:47:00,
2013-02-12 13:02:00,46.5,26.0,29.94,WNW,283,10.0,19.0,45,0.00,,,0.00,weatherlink.com 1.10,2013-02-12 18:02:00,
2013-02-12 13:17:00,47.4,28.0,29.94,West,273,3.0,17.0,47,0.00,,,0.00,weatherlink.com 1.10,2013-02-12 18:17:00,
2013-02-12 13:32:00,47.7,28.0,29.94,WNW,286,6.0,18.0,47,0.00,,,0.00,weatherlink.com 1.10,2013-02-12 18:32:00,
2013-02-12 13:47:00,47.1,27.0,29.94,WNW,296,11.0,18.0,45,0.00,,,0.00,weatherlink.com 1.10,2013-02-12 18:47:00,
2013-02-12 14:02:00,47.0,26.0,29.93,WNW,285,5.0,21.0,45,0.00,,,0.00,weatherlink.com 1.10,2013-02-12 19:02:00,
2013-02-12 14:17:00,47.2,26.0,29.92,West,281,8.0,20.0,44,0.00,,,0.00,weatherlink.com 1.10,2013-02-12 19:17:00,
2013-02-12 14:32:00,46.9,26.0,29.91,NW,309,5.0,19.0,44,0.00,,,0.00,weatherlink.com 1.10,2013-02-12 19:32:00,
2013-02-12 14:47:00,46.7,26.0,29.91,SW,233,7.0,21.0,44,0.00,,,0.00,weatherlink.com 1.10,2013-02-12 19:47:00,
2013-02-12 15:02:00,46.4,26.0,29.90,WNW,298,5.0,18.0,45,0.00,,,0.00,weatherlink.com 1.10,2013-02-12 20:02:00,
2013-02-12 15:17:00,47.0,26.0,29.91,WNW,299,10.0,20.0,44,0.00,,,0.00,weatherlink.com 1.10,2013-02-12 20:17:00,
2013-02-12 15:32:00,46.9,26.0,29.89,WNW,298,8.0,12.0,44,0.00,,,0.00,weatherlink.com 1.10,2013-02-12 20:32:00,
2013-02-12 15:47:00,46.4,26.0,29.86,West,279,9.0,13.0,45,0.00,,,0.00,weatherlink.com 1.10,2013-02-12 20:47:00,
2013-02-12 16:02:00,45.7,25.0,29.86,WNW,287,4.0,15.0,45,0.00,,,0.00,weatherlink.com 1.10,2013-02-12 21:02:00,
2013-02-12 16:17:00,46.0,26.0,29.89,West,268,5.0,12.0,45,0.00,,,0.00,weatherlink.com 1.10,2013-02-12 21:17:00,
2013-02-12 16:32:00,45.3,26.0,29.91,West,275,3.0,13.0,47,0.00,,,0.00,weatherlink.com 1.10,2013-02-12 21:32:00,
2013-02-12 16:47:00,44.9,26.0,29.94,NW,324,5.0,13.0,47,0.00,,,0.00,weatherlink.com 1.10,2013-02-12 21:47:00,
2013-02-12 17:02:00,44.5,26.0,29.94,WSW,258,6.0,13.0,48,0.00,,,0.00,weatherlink.com 1.10,2013-02-12 22:02:00,
2013-02-12 17:17:00,44.1,26.0,29.96,WSW,256,5.0,12.0,49,0.00,,,0.00,weatherlink.com 1.10,2013-02-12 22:17:00,
2013-02-12 17:32:00,43.5,26.0,29.97,WNW,298,3.0,10.0,50,0.00,,,0.00,weatherlink.com 1.10,2013-02-12 22:32:00,
2013-02-12 17:47:00,43.0,26.0,29.97,NW,306,6.0,9.0,51,0.00,,,0.00,weatherlink.com 1.10,2013-02-12 22:47:00,
2013-02-12 18:02:00,42.4,26.0,29.97,NW,305,6.0,11.0,52,0.00,,,0.00,weatherlink.com 1.10,2013-02-12 23:02:00,
2013-02-12 18:17:00,41.7,26.0,29.98,NW,321,8.0,11.0,53,0.00,,,0.00,weatherlink.com 1.10,2013-02-12 23:17:00,
2013-02-12 18:32:00,41.3,26.0,29.98,NW,308,2.0,11.0,54,0.00,,,0.00,weatherlink.com 1.10,2013-02-12 23:32:00,
2013-02-12 18:47:00,40.8,26.0,29.99,WNW,288,1.0,8.0,55,0.00,,,0.00,weatherlink.com 1.10,2013-02-12 23:47:00,
2013-02-12 19:02:00,40.3,26.0,29.98,North,360,0.0,9.0,56,0.00,,,0.00,weatherlink.com 1.10,2013-02-13 00:02:00,
2013-02-12 19:17:00,39.8,25.0,29.98,NW,315,2.0,9.0,56,0.00,,,0.00,weatherlink.com 1.10,2013-02-13 00:17:00,
2013-02-12 19:32:00,39.5,25.0,29.98,NW,319,2.0,9.0,57,0.00,,,0.00,weatherlink.com 1.10,2013-02-13 00:32:00,
2013-02-12 19:47:00,39.2,25.0,29.98,NNW,331,0.0,5.0,57,0.00,,,0.00,weatherlink.com 1.10,2013-02-13 00:47:00,
2013-02-12 20:02:00,38.8,25.0,29.97,NW,326,0.0,10.0,57,0.00,,,0.00,weatherlink.com 1.10,2013-02-13 01:02:00,
2013-02-12 20:17:00,38.7,24.0,29.97,NW,314,1.0,7.0,57,0.00,,,0.00,weatherlink.com 1.10,2013-02-13 01:17:00,
2013-02-12 20:32:00,38.2,24.0,29.96,WNW,286,4.0,4.0,58,0.00,,,0.00,weatherlink.com 1.10,2013-02-13 01:32:00,
2013-02-12 20:47:00,37.9,25.0,29.96,West,266,0.0,2.0,59,0.00,,,0.00,weatherlink.com 1.10,2013-02-13 01:47:00,
2013-02-12 21:03:00,37.2,25.0,29.97,West,265,0.0,1.0,61,0.00,,,0.00,weatherlink.com 1.10,2013-02-13 02:03:00,
2013-02-12 21:18:00,36.1,24.0,29.96,West,265,0.0,0.0,63,0.00,,,0.00,weatherlink.com 1.10,2013-02-13 02:18:00,
2013-02-12 21:33:00,35.2,25.0,29.96,West,263,0.0,0.0,66,0.00,,,0.00,weatherlink.com 1.10,2013-02-13 02:33:00,
2013-02-12 21:48:00,34.2,25.0,29.96,South,191,0.0,2.0,69,0.00,,,0.00,weatherlink.com 1.10,2013-02-13 02:48:00,
2013-02-12 22:03:00,33.5,25.0,29.96,South,191,0.0,0.0,71,0.00,,,0.00,weatherlink.com 1.10,2013-02-13 03:03:00,
2013-02-12 22:18:00,33.2,25.0,29.96,South,191,0.0,0.0,71,0.00,,,0.00,weatherlink.com 1.10,2013-02-13 03:18:00,
2013-02-12 22:33:00,32.4,25.0,29.96,South,191,0.0,0.0,73,0.00,,,0.00,weatherlink.com 1.10,2013-02-13 03:33:00,
2013-02-12 22:48:00,31.7,25.0,29.97,South,191,0.0,0.0,77,0.00,,,0.00,weatherlink.com 1.10,2013-02-13 03:48:00,
2013-02-12 23:03:00,31.6,25.0,29.97,South,191,0.0,0.0,77,0.00,,,0.00,weatherlink.com 1.10,2013-02-13 04:03:00,
2013-02-12 23:18:00,31.5,25.0,29.98,South,191,0.0,0.0,78,0.00,,,0.00,weatherlink.com 1.10,2013-02-13 04:18:00,
2013-02-12 23:33:00,31.4,25.0,29.97,South,191,0.0,0.0,78,0.00,,,0.00,weatherlink.com 1.10,2013-02-13 04:33:00,
2013-02-12 23:48:00,31.3,25.0,29.97,South,191,0.0,0.0,78,0.00,,,0.00,weatherlink.com 1.10,2013-02-13 04:48:00,